Regional Weather Roundup
Issued by NWS Jackson, KY

Home | Current Version | Previous Version | Text Only | Print | Product List | Glossary On
Versions: 1 2 3 4 5 6 7 8 9 10 11 12 13 14 15 16 17 18 19 20 21 22 23 24 25 26 27 28 29 30 31 32 33 34 35 36 37 38 39 40 41 42 43 44 45 46 47 48 49 50
000
ASUS43 KJKL 251119
RWRJKL

EAST KENTUCKY HOURLY WEATHER ROUNDUP
NATIONAL WEATHER SERVICE JACKSON KY
700 AM EDT FRI JUL 25 2014

NOTE: "FAIR" INDICATES FEW OR NO CLOUDS BELOW 12,000 FEET WITH
NO SIGNIFICANT WEATHER AND/OR OBSTRUCTIONS TO VISIBILITY.

* THESE REPORTS ARE NOT UNDER NWS QUALITY CONTROL AND MAY NOT
  REPORT WEATHER SUCH AS PRECIPITATION AND FOG.

KYZ079-080-083-085-087-088-110-112-115-119-120-251200
...EASTERN KENTUCKY...

CITY           SKY/WX    TMP DP  RH WIND       PRES   REMARKS
JACKSON        FOG       59  58  96 CALM      30.10R VSB<1/4
LONDON         FOG       61  59  93 CALM      30.09R VSB<1/4
SOMERSET*      FOG       59  59 100 CALM      30.09S VSB<1/4
MONTICELLO*    FOG       60  60 100 CALM      30.10R VSB<1/4
WILLIAMSBURG*  CLOUDY    59  59 100 E5        30.09R
MIDDLESBORO*   CLOUDY    62  60  94 NW3       30.10R
HARLAN APT*    CLOUDY    61  59  94 MISG      30.11R
HAZARD APT*    FOG       61  61 100 CALM      30.10  VSB 3/4
BLACK MTN*       N/A     52  52 100 CALM        N/A
PIKEVILLE APT* CLOUDY    61  61 100 CALM      30.09R FOG
BIG SANDY*     FOG       61  61 100 CALM      30.09R VSB 1/4
MOREHEAD APT*    N/A     55  54  94 S3        30.12R
ASHLAND*       CLEAR     55  52  88 CALM      30.08R
$$

KYZ035-036-041-042-044-050-067-078-099-251200
...CENTRAL KENTUCKY...

CITY           SKY/WX    TMP DP  RH WIND       PRES   REMARKS
MT STERLING*   CLEAR     54  54 100 CALM      30.11R
FLEMING/MASON* CLEAR     55  54  94 N5        30.12R
DANVILLE*      PTCLDY    54  54 100 CALM      30.10R
RICHMOND*      CLOUDY    55  54  94 CALM      30.09R VSB<1/4
LEXINGTON      CLEAR     58  53  84 CALM      30.09S
FRANKFORT      CLEAR     55  53  93 N3        30.09R
$$

KYZ091>093-OHZ055-061-077-WVZ005-015-034-035-042-251200
...SOUTHERN OHIO/WEST VIRGINIA...

CITY           SKY/WX    TMP DP  RH WIND       PRES   REMARKS
COVINGTON      PTCLDY    59  52  77 CALM      30.10R
COLUMBUS       PTCLDY    56  50  80 NE3       30.10R
DAYTON         PTCLDY    54  50  86 CALM      30.12S
WILMINGTON     PTCLDY    52  49  89 CALM      30.11R
HUNTINGTON     MOCLDY    55  55 100 CALM      30.08R FOG
CHARLESTON     MOCLDY    63  62  97 S7        30.08R
PINEVILLE*     CLOUDY    62  62  98 MISG      30.15S
BECKLEY        CLOUDY    58  55  90 CALM      30.12R
BLUEFIELD      CLOUDY    60  56  86 CALM      30.13R
$$

VAZ002-007-008-TNZ017-027-036-066-071-251200
...SOUTHWEST VIRGINIA/EAST TENNESSEE...

CITY           SKY/WX    TMP DP  RH WIND       PRES   REMARKS
WISE*          FOG       57  57 100 CALM      30.12S VSB 1
JONESVILLE*    FOG       57  57 100 CALM      30.11R VSB 1/4
ABINGDON*      CLEAR     60  59  98 CALM      30.10S
BRISTOL        PTCLDY    60  57  89 CALM      30.08R
KNOXVILLE      CLOUDY    63  62  97 CALM      30.05S
OAK RIDGE      CLEAR     62  60  93 CALM      30.08R
CROSSVILLE     FOG       57  56  96 CALM      30.10R VSB<1/4
NASHVILLE      PTCLDY    63  58  83 CALM      30.08R
$$

...KEY TO REMARKS...
VSB - VISIBILITY IN MILES
WCI - WIND CHILL INDEX
HX  - HEAT INDEX

$$



USA.gov is the U.S. government's official web portal to all federal, state and local government web resources and services.